Regional Weather Roundup
Issued by NWS

Home | Current Version | Previous Version | Graphics & Text | Print | Product List | Glossary On
Versions: 1 2 3 4 5 6 7 8 9 10 11 12 13 14 15 16 17 18 19 20 21 22 23 24 25 26 27 28 29 30 31 32 33 34 35 36 37 38 39 40 41 42 43 44 45 46 47 48 49 50
000
ASUS43 KDTX 241901
RWRMI
MICHIGAN HOURLY REGIONAL WEATHER ROUNDUP
NATIONAL WEATHER SERVICE DETROIT/PONTIAC MI
300 PM EDT FRI MAR 24 2017

NOTE: "FAIR" INDICATES FEW OR NO CLOUDS BELOW 12,000 FEET WITH NO
SIGNIFICANT WEATHER AND/OR OBSTRUCTION TO VISIBILITY.

MIZ047>049-052>055-059>063-066>070-074>076-081>083-242000-
SOUTHEAST LOWER MICHIGAN

CITY           SKY/WX    TMP DP  RH WIND       PRES   REMARKS
ADRIAN         SUNNY     72  53  51 W20G31    29.97F
ALMA           CLOUDY    64  49  59 SW17G23   29.92F
ANN ARBOR      SUNNY     73  54  51 S17G24    29.95F
BAD AXE        PTSUNNY   63  46  55 W10G21    29.91F
CARO           MOSUNNY   68  50  51 SW18G26   29.90S
DETROIT CITY   MOSUNNY   69  52  54 SW21G28   29.94F
DETROIT        CLOUDY    73  54  51 SW24      29.97F
FLINT          MOSUNNY   70  50  49 W15G24    29.91F
GROSSE ILE     MOSUNNY   70  53  55 SW20G26   29.95F
HILLSDALE      SUNNY     72  52  49 SW18G26   29.96F
HOWELL         MOSUNNY   71  49  45 W17       29.93F

CITY           SKY/WX    TMP DP  RH WIND       PRES   REMARKS
JACKSON        SUNNY     73  52  47 SW20G26   29.93F
LAMBERTVILLE   CLOUDY    73  53  49 SW16G26   29.97F
LANSING        CLOUDY    73  50  44 SW16G23   29.92F
LAPEER         FAIR      69  49  47 W13       29.92F
MASON          CLOUDY    72  53  51 SW9G16    29.92F
MONROE         SUNNY     70  56  61 MISG      29.96F
MT. CLEMENS    CLOUDY    69  52  54 SW17G24   29.92F
PONTIAC        CLOUDY    70  50  49 SW13G22   29.93F
PORT HOPE        N/A     45  38  76 NW6       29.91F
PORT HURON     CLOUDY    68  46  45 S9        29.93F
TRI CITIES     CLOUDY    65  50  58 W21G28    29.90F
MIDLAND        FAIR      67  47  49 W15G22    29.88F
TROY           MOSUNNY   70  49  48 SW13G24   29.95F
SAGINAW HB     PTSUNNY   68  45  42 SW23G31   29.90S
$$
MIZ043>046-050>051-056>058-064>065-071>073-077>080-242000-
SOUTHWEST LOWER MICHIGAN

CITY           SKY/WX    TMP DP  RH WIND       PRES   REMARKS
BATTLE CREEK   SUNNY     76  49  38 SW25G31   29.92F
BENTON HARBOR  SUNNY     77  45  32 SW23G32   29.92F
BIG RAPIDS     PTSUNNY   62  46  55 W13       29.90S
COLDWATER      SUNNY     74  50  42 SW18G29   29.95F
FREMONT        PTSUNNY   62  45  54 SW10      29.91F
HOLLAND        PTSUNNY   64  49  57 SW15      29.92F
GRAND RAPIDS   PTSUNNY   68  50  52 W24G32    29.91F
IONIA          PTSUNNY   66  49  55 W10       29.91F
KALAMAZOO      SUNNY     77  45  32 SW22G32   29.92F
LUDINGTON      CLOUDY    50  38  63 N6        29.94S
MARSHALL       SUNNY     75  51  42 SW20G26   29.92F
MOUNT PLEASANT MOSUNNY   66  47  50 SW15      29.89F
MUSKEGON       MOSUNNY   61  46  57 CALM      29.93F
SOUTH HAVEN    SUNNY     73  47  38 SW18G31   29.91F
$$
MIZ016>042-242000-
NORTHERN LOWER MICHIGAN

CITY           SKY/WX    TMP DP  RH WIND       PRES   REMARKS
ALPENA         CLOUDY    39  37  92 NW7       29.99R WCI  34
BEAVER ISLAND  LGT SNOW  34  33  98 N5        30.03R WCI  30
BELLAIRE       MIX PCPN  38  36  92 N5        30.00R WCI  34
CADILLAC       CLOUDY    49  38  65 N10       29.93R
CHARLEVOIX     MIX PCPN  34  34 100 N8        30.04S WCI  27
FRANKFORT      CLOUDY    37  34  90 N6        29.99R FOG     WCI  32
GAYLORD        LGT RAIN  39  35  86 CALM      29.97R FOG
GRAYLING       LGT RAIN  41  37  87 NW8       29.96R
HARBOR SPRINGS MIX PCPN  36  35  97 N6        30.01R WCI  31
HOUGHTON LAKE  CLOUDY    51  38  60 N14       29.93R
MANISTEE       CLOUDY    43  37  79 N6        29.97R
OSCODA         CLOUDY    46  36  69 E3        29.93S
PELLSTON       LGT RAIN  36  32  85 N7        30.02R WCI  30
ROGERS CITY    MIX PCPN  35  33  93 NW9         N/A  WCI  27
TRAVERSE CITY  LGT RAIN  39  37  92 NE7       30.00R FOG     WCI  34
$$
MIZ007>008-015-242000-
EASTERN UPPER MICHIGAN

CITY           SKY/WX    TMP DP  RH WIND       PRES   REMARKS
KINROSS        LGT RAIN  34  32  92 N6        30.01R WCI  29
MACKINAC ISLAN LGT SNOW  32  32 100 N6        30.00R WCI  26
NEWBERRY       CLOUDY    34  33  97 N6        30.02R FOG     WCI  29
S. S. MARIE    CLOUDY    36  32  85 NW3       30.01R FOG
MUNISING         N/A     35  33  92 N9        30.04R WCI  28
$$
MIZ004>006-011>014-085-242000-
CENTRAL UPPER MICHIGAN

CITY           SKY/WX    TMP DP  RH WIND       PRES   REMARKS
MANISTIQUE     LGT RAIN  34  34 100 N9        30.03R WCI  26
ESCANABA       LGT RAIN  37  35  92 N6        30.03S WCI  32
MENOMINEE        N/A    N/A N/A N/A MISG        N/A
SAWYER-GWINN   CLOUDY    32  32 100 N6        30.03R FOG     WCI  26
$$
MIZ001>003-009>011-084-242000-
WESTERN UPPER MICHIGAN

CITY           SKY/WX    TMP DP  RH WIND       PRES   REMARKS
IRON MOUNTAIN  CLOUDY    37  33  85 N8        30.01R FOG     WCI  31
HOUGHTON       CLOUDY    38  31  76 N7        30.05R WCI  33
COPPER HARBOR    N/A     36  33  89 NE7       30.07R WCI  30
IRONWOOD       CLOUDY    35  34  96 N6        30.08R FOG     WCI  30
$$

ABBREVIATIONS USED IN REMARKS
   TC - TEMPERATURE IN CELSIUS
  WCI - WIND CHILL INDEX
   HX - HEAT INDEX
  VSB - VISIBILITY





USA.gov is the U.S. government's official web portal to all federal, state and local government web resources and services.